Voltar ao catálogo

STARLINK-31247

AtivoComunicaçõesVLEO
NORAD 59206·PAYLOAD·🇺🇸 United States

Lançado Mar 11, 2024 de Vandenberg Space Force Base

Loading…

Próximas Passagens (próximas 24 horas)

TLE

AtualizadoSource: CelesTrak SupGP

Época: Sep 15, 2026, 01:44 UTC

1 59206C 24046F   26258.07270833  .00055718  00000+0  16468-2 0  2581
2 59206  53.1599 355.2358 0001261  86.1359 183.2044 15.34350505    13

Acompanhe STARLINK-31247 em tempo real com AllMySat

Download on the App Store